(40206) Lhenice = 1998 SB36 = 2001 DN8

Discovered at Klet on 1998-09-26 by J. Ticha and M. Tichy.
(40206) Lhenice = 1998 SB36

The market town of Lhenice was first mentioned in 1263. St. James' Church, located on its square, is a Gothic building from the fourteenth century. Lhenice is well-known as the south Bohemian town of orchards. [Ref: Minor Planet Circ. 48397]

Orbit

Orbit type: Main Belt

Note: WebGL enabled browser required.

epoch2024-03-31.0
epoch JD2460400.5
perihelion date2019-07-22.30835
perihelion JD2458686.80835
argument of perihelion (°)106.96788
ascending node (°)170.22569
inclination (°)13.88701
eccentricity0.1057408
perihelion distance (AU)2.8008729
Tisserand w.r.t. Jupiter3.2
ΔV w.r.t. Earth (km/sec)11.3
semimajor axis (AU)3.1320595
mean anomaly (°)304.71337
mean daily motion (°/day)0.17781110
aphelion distance (AU)3.463
period (years)5.54
P-vector [x]0.12996805
P-vector [y]-0.97629666
P-vector [z]-0.17306975
Q-vector [x]0.99068063
Q-vector [y]0.13503771
Q-vector [z]-0.01779648
absolute magnitude14.47
phase slope0.15
uncertainty0
referenceMPEC 2024-F74
observations used1238
oppositions21
arc length (days)10195
first opposition used1996
last opposition used2024
residual rms (arc-secs)0.68
perturbers coarse indicatorM-v
perturbers precise indicator003Ek
first observation date used1996-04-22.0
last observation date used2024-03-21.0
computer nameMPCLINUX
JD of orbit computation2456966.698166
perihelion JD uncertainty (days)9.7083E-05
argument of perihelion uncertainty (°)2.1071E-05
ascending node uncertainty (°)1.0347E-05
inclination uncertainty (°)3.7535E-06
eccentricity uncertainty 2.3943E-08
perihelion distance uncertainty (AU)7.7091E-08
Minimum Orbit Intersection Distances (in AU)
for orbit epoch: 2460400.5, reference: E2024-G95
Mercury2.36617
Venus2.10439
Earth1.82462
Mars1.40201
Jupiter1.80832
Saturn5.71539
Uranus15.1683
Neptune26.5528

Observations

1279 total observations over interval: 1996 04 22.15054 – 2024 03 21.581690
These data are available for download (format description).

Date (UT) J2000 RA J2000 Dec Magn Location Ref
1996 04 22.15054 12 31 28.30 +05 12 03.5   691 – Steward Observatory, Kitt Peak-Spacewatch MPS 26406
1996 04 22.17153 12 31 27.60 +05 12 10.6   691 – Steward Observatory, Kitt Peak-Spacewatch MPS 26406
1996 04 22.19241 12 31 26.90 +05 12 18.0 19.2 V 691 – Steward Observatory, Kitt Peak-Spacewatch MPS 26406
1998 09 19.361011 01 31 14.165 +01 03 43.83 19.11 V 645 – Apache Point-Sloan Digital Sky Survey MPS 81158
1998 09 19.364483 01 31 14.059 +01 03 42.14 19.89   645 – Apache Point-Sloan Digital Sky Survey MPS 81158
1998 09 26.04773 01 27 32.90 +00 09 42.6 19.2 V 046 – Klet Observatory, Ceske Budejovice MPS 2373
1998 09 26.05096 01 27 32.77 +00 09 41.2   046 – Klet Observatory, Ceske Budejovice MPS 2373
1998 09 26.05602 01 27 32.59 +00 09 38.9   046 – Klet Observatory, Ceske Budejovice MPS 2373
1998 09 26.07853 01 27 31.75 +00 09 27.7   046 – Klet Observatory, Ceske Budejovice MPS 2373
1998 09 26.08179 01 27 31.69 +00 09 26.0   046 – Klet Observatory, Ceske Budejovice MPS 2373
1998 09 26.08704 01 27 31.45 +00 09 23.6   046 – Klet Observatory, Ceske Budejovice MPS 2373
1998 09 26.29351 01 27 24.21 +00 07 45.7 19.5   704 – Lincoln Laboratory ETS, New Mexico MPS 2689
1998 09 26.32679 01 27 22.99 +00 07 27.8 19.0   704 – Lincoln Laboratory ETS, New Mexico MPS 2689
1998 09 26.34342 01 27 22.34 +00 07 19.0 19.0   704 – Lincoln Laboratory ETS, New Mexico MPS 2689
1998 09 26.36005 01 27 21.76 +00 07 10.1 19.4   704 – Lincoln Laboratory ETS, New Mexico MPS 2689
1998 09 27.39909 01 26 44.29 -00 01 18.2 19.2   704 – Lincoln Laboratory ETS, New Mexico MPS 2689
1998 09 27.41634 01 26 43.40 -00 01 27.0 19.5   704 – Lincoln Laboratory ETS, New Mexico MPS 2689
1998 09 27.43360 01 26 42.91 -00 01 34.9 19.9   704 – Lincoln Laboratory ETS, New Mexico MPS 2689
1998 09 30.00230 01 25 06.91 -00 22 37.0 18.2 R 046 – Klet Observatory, Ceske Budejovice MPS 2373
1998 09 30.00623 01 25 06.74 -00 22 38.6   046 – Klet Observatory, Ceske Budejovice MPS 2373
1998 09 30.00983 01 25 06.62 -00 22 40.6   046 – Klet Observatory, Ceske Budejovice MPS 2373
1998 09 30.01536 01 25 06.41 -00 22 43.1   046 – Klet Observatory, Ceske Budejovice MPS 2373
1998 10 13.97631 01 15 41.93 -02 12 44.5 18.5 R 046 – Klet Observatory, Ceske Budejovice MPS 2689
1998 10 13.97814 01 15 41.84 -02 12 44.5   046 – Klet Observatory, Ceske Budejovice MPS 2689
1998 10 13.98030 01 15 41.74 -02 12 46.2   046 – Klet Observatory, Ceske Budejovice MPS 2689
1998 10 21.01693 01 10 55.04 -03 01 59.6 18.6 V 046 – Klet Observatory, Ceske Budejovice MPS 2689
1998 10 21.01878 01 10 55.01 -03 02 00.4   046 – Klet Observatory, Ceske Budejovice MPS 2689
1998 10 21.02300 01 10 54.82 -03 02 02.0   046 – Klet Observatory, Ceske Budejovice MPS 2689
1998 11 11.82450 00 59 08.02 -04 46 57.1 18.9 V 046 – Klet Observatory, Ceske Budejovice MPS 3035
1998 11 11.82863 00 59 07.90 -04 46 57.8   046 – Klet Observatory, Ceske Budejovice MPS 3035
1998 11 11.83078 00 59 07.88 -04 46 59.0   046 – Klet Observatory, Ceske Budejovice MPS 3035
1998 11 12.85554 00 58 45.08 -04 49 50.9 19.2 V 046 – Klet Observatory, Ceske Budejovice MPS 3035
1998 11 12.85980 00 58 45.05 -04 49 51.7   046 – Klet Observatory, Ceske Budejovice MPS 3035
1998 11 12.86196 00 58 45.00 -04 49 51.9   046 – Klet Observatory, Ceske Budejovice MPS 3035
2000 11 30.476110 10 17 03.527 +02 06 37.31 20.56 V 645 – Apache Point-Sloan Digital Sky Survey MPS 81158
2000 11 30.479582 10 17 03.625 +02 06 36.68 21.34   645 – Apache Point-Sloan Digital Sky Survey MPS 81158
2001 01 26.31422 10 16 01.77 +02 28 33.6 19.1   704 – Lincoln Laboratory ETS, New Mexico MPS 26993
2001 01 26.32910 10 16 01.32 +02 28 39.1 19.4   704 – Lincoln Laboratory ETS, New Mexico MPS 26993
2001 01 26.34401 10 16 00.68 +02 28 41.2 19.2   704 – Lincoln Laboratory ETS, New Mexico MPS 26993
2001 01 26.35890 10 16 00.20 +02 28 46.2 19.5   704 – Lincoln Laboratory ETS, New Mexico MPS 26993
2001 01 26.37380 10 15 59.74 +02 28 49.6 19.1   704 – Lincoln Laboratory ETS, New Mexico MPS 26993
2001 02 18.58250 10 00 49.56 +04 48 01.8 19.3   608 – Haleakala-AMOS MPS 26993
2001 02 18.59365 10 00 49.08 +04 48 06.5 19.3   608 – Haleakala-AMOS MPS 26993
2001 02 18.60440 10 00 48.60 +04 48 11.2 19.5   608 – Haleakala-AMOS MPS 26993
2001 02 19.59242 10 00 06.03 +04 55 12.8 19.6   608 – Haleakala-AMOS MPS 26993
2001 02 19.60244 10 00 05.58 +04 55 17.2 19.6   608 – Haleakala-AMOS MPS 26993
2001 02 19.61240 10 00 05.15 +04 55 21.1 19.8   608 – Haleakala-AMOS MPS 26993
2001 02 20.229910 09 59 38.865 +04 59 43.93 19.39 V 645 – Apache Point-Sloan Digital Sky Survey MPS 81158
2001 02 20.233382 09 59 38.709 +04 59 45.43 20.08   645 – Apache Point-Sloan Digital Sky Survey MPS 81158
2001 03 01.88566 09 52 53.21 +06 10 02.4 18.1 R 046 – Klet Observatory, Ceske Budejovice MPS 26993
2001 03 01.88773 09 52 53.14 +06 10 03.8   046 – Klet Observatory, Ceske Budejovice MPS 26993
2001 03 01.88925 09 52 53.06 +06 10 05.1   046 – Klet Observatory, Ceske Budejovice MPS 26993
2001 03 01.89147 09 52 52.99 +06 10 05.8   046 – Klet Observatory, Ceske Budejovice MPS 26993
2001 03 14.18362 09 45 26.78 +07 38 05.9 19.1 R 699 – Lowell Observatory-LONEOS MPS 27454
2001 03 14.21652 09 45 25.72 +07 38 19.1   699 – Lowell Observatory-LONEOS MPS 27454
2001 03 14.24943 09 45 24.55 +07 38 34.0   699 – Lowell Observatory-LONEOS MPS 27454
2001 03 14.28218 09 45 23.44 +07 38 47.2   699 – Lowell Observatory-LONEOS MPS 27454
2002 04 08.32682 15 41 43.47 -03 39 51.0 18.1   704 – Lincoln Laboratory ETS, New Mexico MPS 54328
2002 04 08.34047 15 41 43.22 -03 39 44.4 18.5   704 – Lincoln Laboratory ETS, New Mexico MPS 54328
2002 04 08.36470 15 41 42.75 -03 39 35.8 19.0   704 – Lincoln Laboratory ETS, New Mexico MPS 54328
2002 04 08.37636 15 41 42.52 -03 39 28.9 19.4   704 – Lincoln Laboratory ETS, New Mexico MPS 54328
2002 04 10.36460 15 41 05.76 -03 24 37.2 18.5   704 – Lincoln Laboratory ETS, New Mexico MPS 54328
2002 04 10.38792 15 41 05.27 -03 24 26.3 19.5   704 – Lincoln Laboratory ETS, New Mexico MPS 54328
2002 04 10.39965 15 41 05.00 -03 24 21.0 18.7   704 – Lincoln Laboratory ETS, New Mexico MPS 54328
2002 04 10.41145 15 41 04.75 -03 24 15.8 18.8   704 – Lincoln Laboratory ETS, New Mexico MPS 54328
2002 04 16.32598 15 38 46.96 -02 39 45.6 18.4   704 – Lincoln Laboratory ETS, New Mexico MPS 54328
2002 04 16.33983 15 38 46.57 -02 39 39.5 18.6   704 – Lincoln Laboratory ETS, New Mexico MPS 54328
2002 04 16.35373 15 38 46.28 -02 39 33.2 18.8   704 – Lincoln Laboratory ETS, New Mexico MPS 54328
2002 04 16.38188 15 38 45.40 -02 39 21.2 18.8   704 – Lincoln Laboratory ETS, New Mexico MPS 54328
2002 05 05.45689 15 27 25.45 -00 25 14.3 18.6   644 – Palomar Mountain/NEAT MPS 54279
2002 05 05.46728 15 27 24.98 -00 25 10.2 18.7   644 – Palomar Mountain/NEAT MPS 54279
2002 05 05.47772 15 27 24.54 -00 25 06.7 18.7   644 – Palomar Mountain/NEAT MPS 54279
2002 05 06.43853 15 26 43.95 -00 19 12.8 18.3   644 – Palomar Mountain/NEAT MPS 54279
2002 05 06.44890 15 26 43.45 -00 19 08.9 18.4   644 – Palomar Mountain/NEAT MPS 54279
2002 05 06.45938 15 26 43.00 -00 19 04.9 18.7   644 – Palomar Mountain/NEAT MPS 54279
2002 05 07.27483 15 26 08.43 -00 14 10.0 18.6   704 – Lincoln Laboratory ETS, New Mexico MPS 54279
2002 05 07.28712 15 26 07.88 -00 14 05.4 19.1   704 – Lincoln Laboratory ETS, New Mexico MPS 54279
2002 05 07.29942 15 26 07.32 -00 14 00.9 19.1   704 – Lincoln Laboratory ETS, New Mexico MPS 54279
2002 05 07.31174 15 26 06.77 -00 13 56.3 18.8   704 – Lincoln Laboratory ETS, New Mexico MPS 54279
2002 05 07.32406 15 26 06.23 -00 13 51.6 18.9   704 – Lincoln Laboratory ETS, New Mexico MPS 54279
2002 05 13.41686 15 21 41.15 +00 19 53.7 18.5   644 – Palomar Mountain/NEAT MPS 54279
2002 05 13.42723 15 21 40.68 +00 19 57.1 18.3   644 – Palomar Mountain/NEAT MPS 54279
2002 05 13.43765 15 21 40.22 +00 20 00.2 18.1   644 – Palomar Mountain/NEAT MPS 54279
